Showing default

IRIDIUM 112, 41925

Orbit data source: Space-Track

IRIDIUM 112, 41925 is a payload satellite owned by Iridium (US) in LEO that was launched on Sat, 14 Jan 2017 UTC via an FALCON 9 launch vehicle from the Air Force Western Test Range (AFWTR). Payload-class satellites include a variety of spacecraft equipped with specific instruments for various scientific and technological missions. These include communications satellites like Starlink; space stations such as the ISS; scientific satellites like the Hubble; Earth observation satellites from companies like Planet Labs, Umbra, and HawkEye 360; GPS; miniature CubeSats for education and research; and military/defense satellites.

Loading next visibility...
Identifier
41925, 2017-003J
Orbit
LEO
Country
Flag of USUS
Related business
Manufacturer
OATK SSG Gilbert
Mission
Operational Commercial Communications
Bus & Motor
ELITEBUS, Unknown motor
Mass
860 kg wet, 700 kg dry
Launch date (UTC)
2017-01-14 (9 years ago)
Launch vehicle
FALCON 9
Launch site
Air Force Western Test Range (AFWTR)
Object type
Payload
Rocket body
Debris
Shape & HBR
Trap Box + 2 Pan, 4.8 m
Radar Cross Section
10.154 m², Large (>1 m²)

Expand to show TLE details & history
Last TLE update: 8 hours ago

TLE from 8 hours ago
0 IRIDIUM 112
1 41925U 17003J   26035.36405359  .00000332  00000-0  11152-3 0  9994
2 41925  86.4017 143.8298 0002209 100.6042 259.5403 14.34219284474236
Epoch: 2026-02-04T08:44Z
TLE epoch observation values (Epoch: 2026-02-04T08:44:14.230Z)
Latitude
0.00002°
Longitude
-121.76119°
Altitude
781 km
Speed
7.463 km/s
True Right ascension
09h 35m 19s
True Declination
0° 00' 00"
Sunlit
Object was in full shadow at epoch
Visualization orbit readout
Latitude
Unknown
Longitude
Unknown
Altitude
Unknown
Speed
Unknown
Apparent Right ascension
Unknown
Apparent Declination
Unknown
Sunlit
N/A
Visualization observer readout
Local Sidereal Time
19:05:29
Azimuth
Unknown
Elevation
Unknown
Doppler factor
Unknown
Orbital elements
Apogee altitude
776.206 km
Perigee altitude
773.046 km
Semi-major axis
7,152.763 km
Eccentricity
0.00022
Inclination
86.4017°
RAAN
143.8298°
Arg. of periapsis
100.6042°
True anomaly
259.51541°
Mean anomaly
259.5403°
Eccentric anomaly
259.52785°
Mean motion
3.58783 °/min
Orbital period
100.34 mins
BSTAR
0.00011152
Loading maneuver chart data...
Computing Atmospheric mass density...
Loading historical data...
Loading historical data...
Loading historical data...
Loading historical data...
Loading historical data...
Loading historical data...
Loading historical data...

Documentation

Showing up to 5 results
|